Hourly Data Report for October 04, 2017

All times are specified in Local Standard Time (LST). Add 1 hour to adjust for Daylight Saving Time where and when it is observed.

NORTHEAST MARGAREE (AUT)
NOVA SCOTIA

46°22'06.090" N
60°58'33.080" W
54.00 m
8204154
WNS

Related Data

No related data is available for this station

Download Data

Hourly Data (October 2017)
Hourly Data Report for October 4, 2017
Temp Definition
°C
Dew Point Temp Definition
°C
Rel Hum Definition
%
Wind Dir Definition
10's deg

Wind Spd Definition
km/h
Visibility Definition
km
Stn Press Definition
kPa
Hmdx Definition


Wind Chill Definition


Weather Definition


TIME
00:00 2.6 2.0 96 36 3   102.28     LegendNANA
01:00 3.5 2.8 95 2 2   102.23     LegendNANA
02:00 4.0 3.4 95 0 1   102.12     LegendNANA
03:00 3.0 2.4 95   0   102.05     LegendNANA
04:00 2.2 1.5 95 3 1   102.01     LegendNANA
05:00 3.4 2.7 96 1 2   101.90     LegendNANA
06:00 4.3 3.6 96 0 1   101.80     LegendNANA
07:00 5.3 4.7 96 35 2   101.75     LegendNANA
08:00 6.7 6.1 96 0 1   101.69     LegendNANA
09:00 8.7 8.1 96 19 4   101.64     LegendNANA
10:00 10.5 9.5 94 20 5   101.57     LegendNANA
11:00 13.2 10.5 84 20 7   101.51     LegendNANA
12:00 15.0 10.8 76 20 9   101.43     LegendNANA
13:00 17.4 10.9 66 24 7   101.29     LegendNANA
14:00 18.0 11.7 66 22 9   101.23     LegendNANA
15:00 18.6 11.3 62 21 7   101.15     LegendNANA
16:00 18.2 10.5 61 21 8   101.12     LegendNANA
17:00 15.4 11.7 79 35 1   101.06     LegendNANA
18:00 12.9 11.0 88 35 2   101.00     LegendNANA
19:00 11.2 9.7 91 36 2   100.94     LegendNANA
20:00 10.3 9.1 93 1 4   100.90     LegendNANA
21:00 9.7 8.6 93 36 4   100.87     LegendNANA
22:00 9.4 8.4 94 1 6   100.79     LegendNANA
23:00 9.2 8.3 94 35 2   100.74     LegendNANA

Notes on Data Quality.

Legend

  • E = Estimated
  • M = Missing
  • NA = Not Available
  • ‡ = Partner data that is not subject to review by the National Climate Archives
Date modified: